GLOBALSTAR M077

Last updated on Sun Jun 21 2026 00:03:18 GMT+0000 (Coordinated Universal Time)

1 37191U 10054D 26171.39943257 -.00000083 00000+0 -90016-4 0 9992 2 37191 51.9916 171.1423 0002680 178.3140 342.6358 11.67547823721514
UTC large
Height (km)
Speed (km/s)
/
Latitude / Longitude
Inclination (degrees)
Orbital Period (minutes)
Azimuth
Elevation
Range (km)
Doppler Factor

Next 0 passes for location: London (51.5072 / 0.1276)

No passes found over London.
GLOBALSTAR M077